Flag for U.S.A. Weather past 2 weeks in Avalon (Santa Catalina Island), California, U.S.A.

Now
53 °F

Overcast.


Feels Like: 51 °F
Forecast: 56 / 65 °F
Wind: 8 mph from West

Location: Catalina Airport

Current Time: Apr 25, 2015 at 8:23:04 AM

Latest Report: Apr 25, 2015 at 7:51 AM


Visibility: 10 mi

Pressure: 29.99 "Hg

Humidity: 83%

Dew point: 48 °F

Location of Avalon (Santa Catalina Island)Location

Historic Weather in Avalon (Santa Catalina Island) — Graph

°F

Avalon (Santa Catalina Island) temperature yesterday

Maximum temperature yesterday: 56 °F (at 12:51 PM)
Minimum temperature yesterday: 51 °F (at 1:51 AM)
Average temperature yesterday: 53 °F

Past Weeks' High & Low Weather Summary

 TemperatureHumidityPressure
High74 °F (Apr 16, 1:51 PM)100% (Apr 13, 6:51 AM)30.13 "Hg (Apr 13, 6:51 AM)
Low49 °F (Apr 10, 6:51 AM)9% (Apr 16, 1:51 PM)29.85 "Hg (Apr 20, 5:51 PM)
Average58 °F65%29.96 "Hg
* Reported Apr 10 6:51 AM — Apr 25 6:51 AM, Avalon (Santa Catalina Island), Weather by CustomWeather, © 2015

Note: Actual official high and low records may vary slightly from our data, if they occured in-between our weather recording intervals... More about our weather records

Advertising

Avalon (Santa Catalina Island) weather history for previous 24 hours

 ConditionsComfort  
Time TempWeatherWind HumidityBarometerVisibility
6:51 AM
Sat, Apr 25
52 °FOvercast.No wind89%29.98 "Hg10 mi
5:51 AM51 °FOvercast.3 mph89%29.98 "Hg10 mi
4:51 AM51 °FLow clouds.No wind92%29.98 "Hg10 mi
3:58 AM50 °FPassing clouds.No wind93%29.99 "Hg10 mi
2:51 AM50 °FFog.6 mph100%29.98 "Hg6 mi
1:51 AM51 °FPassing clouds.8 mph96%29.99 "Hg10 mi
12:51 AM51 °FClear.3 mph89%29.99 "Hg10 mi
11:51 PM
Fri, Apr 24
51 °FClear.5 mph89%30.00 "Hg10 mi
10:51 PM51 °FClear.3 mph92%30.02 "Hg10 mi
9:51 PM52 °FClear.3 mph89%30.03 "Hg10 mi
8:51 PM52 °FOvercast.5 mph86%30.01 "Hg10 mi
7:51 PM53 °FOvercast.5 mph83%30.00 "Hg10 mi
6:51 PM53 °FLow clouds.8 mph83%30.00 "Hg10 mi
5:51 PM53 °FLow clouds.6 mph86%30.00 "Hg10 mi
4:51 PM54 °FLow clouds.9 mph83%29.99 "Hg10 mi
3:51 PM54 °FMostly cloudy.12 mph83%29.99 "Hg10 mi
2:51 PM55 °FMostly cloudy.9 mph80%30.00 "Hg10 mi
1:51 PM55 °FOvercast.6 mph83%30.01 "Hg10 mi
12:51 PM56 °FMostly cloudy.5 mph81%30.01 "Hg10 mi
12:02 PM55 °FMostly cloudy.12 mph83%30.03 "Hg10 mi
11:51 AM54 °FMostly cloudy.10 mph90%30.02 "Hg9 mi
10:51 AM52 °FMostly cloudy.10 mph97%30.02 "Hg8 mi
9:51 AM52 °FFog.9 mph97%30.01 "Hg6 mi
9:01 AM51 °FFog.9 mph100%30.00 "Hg2 mi
Weather by CustomWeather, © 2015

See weather overviewHow to use our weather pages